GBGHW EGLC-LIEE

Flight info

Callsign GBGHW
Flight time N/A
Altitude 45000
Route ODUKU1H ODUKU DCT SFD UY47 BENBO UL612 RESMI UM975 PEKIM DCT LUSAR DCT LURAG DCT NOPMU DCT GOPAT DCT KOVAS KOVAS1W
Aircraft C750/M-SBDE3FGHRWXY/S

Departure

Time 2026-05-07 12:44
Airport London City Airport (EGLC)

Arrival

Time N/A
Airport Cagliari Elmas Airport (LIEE)
Time Latitude Longitude Altitude Speed Heading
2026-05-07 12:36 51.50459 0.04354 22 ft 0 kts 308°
2026-05-07 12:42 51.50461 0.04351 25 ft 0 kts 319°
2026-05-07 12:42 51.50468 0.04347 24 ft 0 kts 359°
2026-05-07 12:42 51.50486 0.04353 22 ft 5 kts 23°
2026-05-07 12:42 51.50496 0.04418 22 ft 9 kts 98°
2026-05-07 12:43 51.50509 0.04440 23 ft 3 kts 14°
2026-05-07 12:43 51.50547 0.04453 23 ft 6 kts 29°
2026-05-07 12:43 51.50554 0.04483 22 ft 0 kts 93°
2026-05-07 12:43 51.50554 0.04484 22 ft 1 kts 93°
2026-05-07 12:44 51.50550 0.04691 22 ft 61 kts 92°
2026-05-07 12:44 51.50511 0.05893 59 ft 137 kts 93°
2026-05-07 12:44 51.50451 0.07448 637 ft 142 kts 94°
2026-05-07 12:44 51.50392 0.09059 1304 ft 147 kts 94°
2026-05-07 12:45 51.50490 0.10712 1943 ft 152 kts 76°
2026-05-07 12:45 51.50942 0.12294 2486 ft 167 kts 57°
2026-05-07 12:45 51.51846 0.13695 2954 ft 190 kts 32°
2026-05-07 12:45 51.53024 0.14588 3915 ft 187 kts 24°
2026-05-07 12:46 51.54258 0.15504 4544 ft 206 kts 25°
2026-05-07 12:46 51.55529 0.16810 4970 ft 231 kts 49°
2026-05-07 12:46 51.56280 0.19056 5976 ft 224 kts 66°
2026-05-07 12:46 51.56893 0.21174 6816 ft 229 kts 65°
2026-05-07 12:47 51.57225 0.23672 7558 ft 234 kts 98°
2026-05-07 12:47 51.56610 0.26030 8601 ft 230 kts 129°
2026-05-07 12:47 51.55321 0.27500 9573 ft 232 kts 161°
2026-05-07 12:47 51.53712 0.27692 10350 ft 238 kts 185°
2026-05-07 12:48 51.51994 0.27338 10732 ft 261 kts 188°
2026-05-07 12:48 51.50767 0.27055 10939 ft 277 kts 188°
2026-05-07 12:48 51.48777 0.26635 11185 ft 301 kts 187°
2026-05-07 12:48 51.46604 0.26211 11324 ft 327 kts 187°
2026-05-07 12:49 51.44265 0.25747 11546 ft 346 kts 187°
2026-05-07 12:49 51.41873 0.25258 12294 ft 347 kts 187°
2026-05-07 12:49 51.39458 0.24767 12990 ft 351 kts 187°
2026-05-07 12:49 51.37025 0.24281 13661 ft 354 kts 187°
2026-05-07 12:50 51.34570 0.23790 14304 ft 357 kts 187°
2026-05-07 12:50 51.32086 0.23291 14728 ft 362 kts 187°
2026-05-07 12:50 51.29583 0.22788 15334 ft 364 kts 187°
2026-05-07 12:50 51.27056 0.22282 15947 ft 367 kts 187°
2026-05-07 12:51 51.24509 0.21773 16574 ft 370 kts 188°
2026-05-07 12:51 51.21946 0.21261 17215 ft 373 kts 188°
2026-05-07 12:51 51.19359 0.20744 17875 ft 376 kts 188°
2026-05-07 12:51 51.16749 0.20225 18504 ft 380 kts 188°
2026-05-07 12:52 51.14117 0.19700 19112 ft 383 kts 188°
2026-05-07 12:52 51.11460 0.19171 19718 ft 386 kts 188°
2026-05-07 12:52 51.08783 0.18639 20333 ft 389 kts 188°
2026-05-07 12:52 51.06083 0.18104 20946 ft 393 kts 188°
2026-05-07 12:53 51.03361 0.17565 21544 ft 396 kts 188°
2026-05-07 12:53 51.00613 0.17021 22157 ft 400 kts 188°
2026-05-07 12:53 50.97845 0.16473 22755 ft 403 kts 188°
2026-05-07 12:53 50.95047 0.15921 23353 ft 407 kts 188°
2026-05-07 12:54 50.92227 0.15365 23887 ft 410 kts 188°
2026-05-07 12:54 50.89389 0.14806 24407 ft 413 kts 188°
2026-05-07 12:54 50.86582 0.14253 24894 ft 416 kts 189°
2026-05-07 12:54 50.83701 0.13687 25369 ft 419 kts 189°
2026-05-07 12:55 50.80799 0.13118 25858 ft 422 kts 189°
2026-05-07 12:55 50.77874 0.12545 26362 ft 425 kts 189°
2026-05-07 12:55 50.74954 0.11809 26805 ft 427 kts 194°
2026-05-07 12:55 50.72055 0.10715 27303 ft 429 kts 195°
2026-05-07 12:56 50.69131 0.09652 27809 ft 433 kts 194°
2026-05-07 12:56 50.66184 0.08615 28307 ft 436 kts 194°
2026-05-07 12:56 50.63218 0.07549 28791 ft 439 kts 195°
2026-05-07 12:56 50.60227 0.06452 29281 ft 443 kts 195°
2026-05-07 12:57 50.57214 0.05359 29771 ft 446 kts 195°
2026-05-07 12:57 50.54178 0.04282 30226 ft 449 kts 194°
2026-05-07 12:57 50.51055 0.03669 30593 ft 456 kts 185°
2026-05-07 12:57 50.47873 0.03822 31028 ft 461 kts 176°
2026-05-07 12:58 50.44725 0.04753 31645 ft 461 kts 168°
2026-05-07 12:58 50.41700 0.06422 32272 ft 462 kts 159°
2026-05-07 12:58 50.38865 0.08813 32852 ft 465 kts 150°
2026-05-07 12:58 50.36261 0.11814 33449 ft 465 kts 144°
2026-05-07 12:59 50.33710 0.14916 34061 ft 463 kts 145°
2026-05-07 12:59 50.31165 0.17980 34571 ft 462 kts 145°
2026-05-07 12:59 50.28619 0.21045 35041 ft 462 kts 145°
2026-05-07 12:59 50.26077 0.24118 35530 ft 461 kts 144°
2026-05-07 13:00 50.23544 0.27176 36025 ft 461 kts 144°
2026-05-07 13:00 50.21005 0.30226 36532 ft 460 kts 144°
2026-05-07 13:00 50.18474 0.33263 37024 ft 458 kts 144°
2026-05-07 13:00 50.15916 0.36330 37073 ft 469 kts 144°
2026-05-07 13:01 50.13300 0.39463 37074 ft 480 kts 144°
2026-05-07 13:01 50.10619 0.42671 37082 ft 490 kts 144°
2026-05-07 13:01 50.05100 0.49257 37086 ft 509 kts 144°
2026-05-07 13:02 49.99390 0.56053 37078 ft 522 kts 144°
2026-05-07 13:02 49.93606 0.62914 37068 ft 523 kts 144°
2026-05-07 13:03 49.87814 0.69763 37064 ft 524 kts 144°
2026-05-07 13:03 49.82013 0.76601 37060 ft 524 kts 144°
2026-05-07 13:04 49.76207 0.83424 37052 ft 524 kts 144°
2026-05-07 13:04 49.70399 0.90228 37045 ft 524 kts 144°
2026-05-07 13:05 49.64580 0.97025 37052 ft 525 kts 144°
2026-05-07 13:05 49.58756 1.03806 37047 ft 525 kts 145°
2026-05-07 13:06 49.52926 1.10573 37047 ft 524 kts 145°
2026-05-07 13:06 49.47139 1.17271 37049 ft 524 kts 145°
2026-05-07 13:07 49.41300 1.24007 37048 ft 524 kts 145°
2026-05-07 13:07 49.35461 1.30723 37057 ft 525 kts 145°
2026-05-07 13:08 49.29618 1.37423 37033 ft 525 kts 145°
2026-05-07 13:08 49.23758 1.44123 37051 ft 526 kts 145°
2026-05-07 13:09 49.17900 1.50799 37058 ft 525 kts 145°
2026-05-07 13:09 49.12031 1.57469 37053 ft 525 kts 145°
2026-05-07 13:10 49.06165 1.64115 37033 ft 525 kts 145°
2026-05-07 13:10 49.00286 1.70755 37044 ft 526 kts 145°
2026-05-07 13:11 48.94406 1.77377 37039 ft 526 kts 146°
2026-05-07 13:11 48.88512 1.83994 37038 ft 527 kts 146°
2026-05-07 13:12 48.82613 1.90598 37040 ft 527 kts 146°
2026-05-07 13:12 48.76711 1.97185 37048 ft 527 kts 146°
2026-05-07 13:13 48.70801 2.03760 37049 ft 526 kts 146°
2026-05-07 13:13 48.64897 2.10311 37046 ft 526 kts 146°
2026-05-07 13:14 48.59002 2.16887 37031 ft 527 kts 143°
2026-05-07 13:14 48.53980 2.24998 37035 ft 533 kts 127°
2026-05-07 13:15 48.49954 2.34403 37041 ft 534 kts 124°
2026-05-07 13:15 48.45676 2.43538 37050 ft 533 kts 128°
2026-05-07 13:16 48.41450 2.52723 37045 ft 534 kts 125°
2026-05-07 13:16 48.37213 2.61910 37031 ft 535 kts 128°
2026-05-07 13:17 48.32929 2.71059 37032 ft 535 kts 126°
2026-05-07 13:17 48.28683 2.80238 37031 ft 535 kts 127°
2026-05-07 13:18 48.23762 2.88533 37032 ft 532 kts 137°
2026-05-07 13:18 48.18513 2.96330 37029 ft 532 kts 136°
2026-05-07 13:19 48.13371 3.04336 37037 ft 534 kts 137°
2026-05-07 13:19 48.08123 3.12178 37037 ft 533 kts 137°
2026-05-07 13:20 48.02941 3.20113 37038 ft 533 kts 137°
2026-05-07 13:20 47.97738 3.27905 37037 ft 533 kts 137°
2026-05-07 13:21 47.92527 3.35783 37039 ft 534 kts 137°
2026-05-07 13:21 47.87286 3.43624 37030 ft 535 kts 137°
2026-05-07 13:22 47.82041 3.51479 37033 ft 534 kts 137°
2026-05-07 13:22 47.76790 3.59303 37032 ft 534 kts 137°
2026-05-07 13:23 47.71535 3.67117 37036 ft 535 kts 137°
2026-05-07 13:23 47.66268 3.74922 37033 ft 535 kts 137°
2026-05-07 13:24 47.60998 3.82707 37032 ft 535 kts 137°
2026-05-07 13:24 47.55719 3.90487 37033 ft 535 kts 137°
2026-05-07 13:25 47.50437 3.98242 37030 ft 535 kts 137°
2026-05-07 13:25 47.45146 4.05990 37031 ft 535 kts 137°
2026-05-07 13:26 47.39852 4.13719 37030 ft 535 kts 137°
2026-05-07 13:26 47.34544 4.21445 37022 ft 536 kts 137°
2026-05-07 13:27 47.29235 4.29148 37021 ft 536 kts 138°
2026-05-07 13:27 47.23913 4.36849 37021 ft 536 kts 138°
2026-05-07 13:28 47.18591 4.44526 37016 ft 536 kts 138°
2026-05-07 13:28 47.13261 4.52192 37018 ft 536 kts 138°
2026-05-07 13:29 47.07911 4.59864 37010 ft 538 kts 138°
2026-05-07 13:29 47.02556 4.67521 37016 ft 538 kts 138°
2026-05-07 13:30 46.97193 4.75166 37014 ft 538 kts 139°
2026-05-07 13:30 46.91830 4.82789 37017 ft 538 kts 139°
2026-05-07 13:31 46.86463 4.90395 37001 ft 538 kts 139°
2026-05-07 13:31 46.81090 4.97987 37013 ft 538 kts 139°
2026-05-07 13:32 46.75707 5.05571 37015 ft 537 kts 139°
2026-05-07 13:32 46.70327 5.13128 37015 ft 537 kts 139°
2026-05-07 13:33 46.65107 5.20928 37020 ft 540 kts 133°
2026-05-07 13:33 46.61126 5.27953 37017 ft 541 kts 132°
2026-05-07 13:34 46.53815 5.40456 37024 ft 541 kts 133°
2026-05-07 13:35 46.48978 5.48843 37024 ft 541 kts 133°
2026-05-07 13:35 46.44087 5.57149 37024 ft 542 kts 133°
2026-05-07 13:36 46.39219 5.65492 37023 ft 542 kts 133°
2026-05-07 13:36 46.34314 5.73810 37006 ft 543 kts 134°
2026-05-07 13:37 46.29418 5.82120 37073 ft 543 kts 133°
2026-05-07 13:37 46.27018 5.86186 38380 ft 518 kts 134°
2026-05-07 13:37 46.24741 5.90037 39790 ft 489 kts 134°
2026-05-07 13:37 46.22569 5.93700 40760 ft 475 kts 134°
2026-05-07 13:38 46.20412 5.97316 41091 ft 476 kts 134°
2026-05-07 13:38 46.18251 6.00944 41462 ft 477 kts 134°
2026-05-07 13:38 46.16092 6.04581 41862 ft 477 kts 134°
2026-05-07 13:38 46.13936 6.08206 42263 ft 477 kts 134°
2026-05-07 13:39 46.11772 6.11828 42659 ft 477 kts 134°
2026-05-07 13:39 46.09608 6.15444 43058 ft 477 kts 134°
2026-05-07 13:39 46.07445 6.19061 43437 ft 477 kts 134°
2026-05-07 13:39 46.05280 6.22678 43811 ft 477 kts 134°
2026-05-07 13:40 46.03111 6.26291 44177 ft 477 kts 134°
2026-05-07 13:40 46.00941 6.29902 44540 ft 477 kts 134°
2026-05-07 13:40 45.98772 6.33509 44860 ft 477 kts 134°
2026-05-07 13:40 45.96597 6.37120 44983 ft 481 kts 134°
2026-05-07 13:41 45.94384 6.40785 44987 ft 489 kts 134°
2026-05-07 13:41 45.89870 6.48257 44994 ft 502 kts 134°
2026-05-07 13:42 45.85229 6.55916 44988 ft 515 kts 135°
2026-05-07 13:42 45.80473 6.63744 44980 ft 527 kts 134°
2026-05-07 13:43 45.75602 6.71737 44978 ft 538 kts 134°
2026-05-07 13:43 45.70633 6.79867 44984 ft 546 kts 134°
2026-05-07 13:44 45.65628 6.88036 44989 ft 546 kts 134°
2026-05-07 13:44 45.60639 6.96150 44983 ft 547 kts 134°
2026-05-07 13:45 45.55554 7.04236 44930 ft 545 kts 139°
2026-05-07 13:45 45.49555 7.10544 44961 ft 532 kts 155°
2026-05-07 13:46 45.42729 7.14390 44993 ft 526 kts 166°
2026-05-07 13:46 45.35763 7.17680 44989 ft 528 kts 162°
2026-05-07 13:47 45.28935 7.21521 44995 ft 527 kts 164°
2026-05-07 13:47 45.22009 7.24950 44993 ft 528 kts 163°
2026-05-07 13:48 45.15143 7.28650 44980 ft 528 kts 163°
2026-05-07 13:48 45.08250 7.32155 44985 ft 526 kts 164°
2026-05-07 13:49 45.01386 7.35751 44991 ft 526 kts 163°
2026-05-07 13:49 44.94504 7.39290 44950 ft 526 kts 164°
2026-05-07 13:50 44.87640 7.42833 44961 ft 525 kts 164°
2026-05-07 13:50 44.80778 7.46361 44959 ft 525 kts 164°
2026-05-07 13:51 44.73912 7.49880 44955 ft 525 kts 164°
2026-05-07 13:51 44.67070 7.53383 44987 ft 523 kts 164°
2026-05-07 13:52 44.60225 7.56872 44994 ft 523 kts 164°
2026-05-07 13:52 44.53379 7.60360 44994 ft 523 kts 164°
2026-05-07 13:53 44.46528 7.63836 44995 ft 523 kts 164°
2026-05-07 13:53 44.39689 7.67301 44994 ft 523 kts 164°
2026-05-07 13:54 44.32846 7.70757 44982 ft 523 kts 165°
2026-05-07 13:54 44.26007 7.74203 44975 ft 522 kts 165°
2026-05-07 13:55 44.19180 7.77635 44989 ft 521 kts 165°
2026-05-07 13:55 44.12335 7.81067 44979 ft 523 kts 165°
2026-05-07 13:56 44.05497 7.84488 44972 ft 521 kts 165°
2026-05-07 13:56 43.98669 7.87894 44989 ft 522 kts 165°
2026-05-07 13:57 43.91720 7.90429 44990 ft 513 kts 176°
2026-05-07 13:57 43.84649 7.91927 44998 ft 515 kts 175°
2026-05-07 13:58 43.77582 7.93494 44995 ft 514 kts 175°
2026-05-07 13:58 43.70509 7.95003 44988 ft 515 kts 175°
2026-05-07 13:59 43.63479 7.96538 44987 ft 515 kts 175°
2026-05-07 13:59 43.56356 7.98065 44979 ft 514 kts 175°
2026-05-07 14:00 43.49331 7.99581 44983 ft 515 kts 175°
2026-05-07 14:00 43.42257 8.01096 44983 ft 514 kts 176°
2026-05-07 14:01 43.35182 8.02613 44984 ft 514 kts 175°
2026-05-07 14:01 43.28104 8.04123 44986 ft 515 kts 176°
2026-05-07 14:02 43.21024 8.05633 44982 ft 515 kts 176°
2026-05-07 14:02 43.13938 8.07139 44966 ft 515 kts 176°
2026-05-07 14:03 43.06816 8.08649 44984 ft 515 kts 176°